Weather History for Oxford, NC

Change the Weather History Date:

Tuesday, February 26, 2013

  Actual Average (KTDF) Record (KTDF)
Temperature  
Mean Temperature 42 °F -  
Max Temperature 54 °F 52 °F 73 °F (2002)
Min Temperature 30 °F 27 °F 7 °F (1967)
Degree Days  
Heating Degree Days 23    
Moisture  
Dew Point 39 °F    
Average Humidity 88    
Maximum Humidity 97    
Minimum Humidity 70    
Precipitation  
Precipitation 0.60 in - - ()
Sea Level Pressure  
Sea Level Pressure 29.85 in    
Wind  
Wind Speed 8 mph (ENE)    
Max Wind Speed 23 mph    
Max Gust Speed 31 mph    
Visibility 6 miles    
Events Fog , Rain    
Averages and records for this station are not official NWS values.
T = Trace of Precipitation, MM = Missing Value Source: NWS Daily Summary

Daily Weather History Graph

Daily Weather History Graph

Search for Another Location

Airport:

Trip Planner

Search our weather history database for the weather conditions in past years. The results will help you decide how hot, cold, wet, or windy it might be!

Date:

Astronomy

Feb. 26, 2013 Rise Set
Actual Time 6:48 AM EST 6:06 PM EST
Civil Twilight 6:22 AM EST 6:32 PM EST
Nautical Twilight 5:52 AM EST 7:02 PM EST
Astronomical Twilight 5:22 AM EST 7:31 PM EST
Moon 7:17 PM EST (2/26) 6:52 AM EST (2/26)
Length of Visible Light 12h 09m
Length of Day
11h 18m
Full, 99% of the Moon is Illuminated
Feb 26
Full
Mar 4
Last Quarter
Mar 11
New
Mar 19
First Quarter
Mar 27
Full

Hourly Weather History & Observations

Time (EST) Temp. Windchill Dew Point Humidity Pressure Visibility Wind Dir Wind Speed Gust Speed Precip Events Conditions
12:15 AM 31.6 °F 27.0 °F 24.6 °F 75% 30.16 in 10.0 mi NE 4.6 mph - N/A   Clear
12:35 AM 30.4 °F 25.6 °F 24.8 °F 80% 30.16 in 10.0 mi NE 4.6 mph - N/A   Clear
12:55 AM 30.9 °F 26.2 °F 24.8 °F 78% 30.14 in 10.0 mi NE 4.6 mph - N/A   Clear
1:15 AM 31.8 °F 28.5 °F 24.8 °F 75% 30.15 in 10.0 mi NE 3.5 mph - N/A   Clear
1:35 AM 32.0 °F 28.7 °F 24.8 °F 75% 30.16 in 10.0 mi NE 3.5 mph - N/A   Scattered Clouds
1:55 AM 32.0 °F 28.7 °F 25.7 °F 78% 30.14 in 10.0 mi ENE 3.5 mph - N/A   Mostly Cloudy
2:15 AM 32.0 °F 27.5 °F 25.7 °F 78% 30.14 in 10.0 mi ENE 4.6 mph - N/A   Overcast
2:35 AM 32.5 °F 27.1 °F 26.2 °F 78% 30.13 in 10.0 mi NE 5.8 mph - N/A   Overcast
2:55 AM 32.9 °F 27.5 °F 26.4 °F 77% 30.11 in 10.0 mi NE 5.8 mph - N/A   Overcast
3:15 AM 33.4 °F 27.3 °F 25.5 °F 73% 30.11 in 10.0 mi NE 6.9 mph - N/A   Overcast
3:35 AM 33.4 °F 28.1 °F 25.5 °F 73% 30.10 in 10.0 mi NE 5.8 mph - N/A   Overcast
3:55 AM 33.8 °F 25.8 °F 25.5 °F 72% 30.09 in 10.0 mi ENE 10.4 mph - N/A   Overcast
4:15 AM 34.0 °F 25.0 °F 25.2 °F 70% 30.08 in 10.0 mi ENE 12.7 mph - N/A   Overcast
4:35 AM 34.2 °F 26.8 °F 25.3 °F 70% 30.07 in 10.0 mi NE 9.2 mph 16.1 mph N/A   Overcast
4:55 AM 34.2 °F 27.5 °F 25.9 °F 72% 30.09 in 10.0 mi NE 8.1 mph - N/A   Overcast
5:15 AM 34.2 °F 26.8 °F 26.4 °F 73% 30.09 in 10.0 mi NE 9.2 mph - N/A   Overcast
5:35 AM 34.0 °F 27.2 °F 27.0 °F 75% 30.07 in 10.0 mi NE 8.1 mph - N/A   Light Drizzle
5:55 AM 34.0 °F 28.0 °F 27.0 °F 75% 30.07 in 10.0 mi NNE 6.9 mph - N/A   Overcast
6:15 AM 34.2 °F 25.7 °F 27.3 °F 76% 30.05 in 10.0 mi NE 11.5 mph - N/A   Overcast
6:35 AM 34.3 °F 27.7 °F 27.7 °F 77% 30.05 in 10.0 mi NE 8.1 mph - N/A   Overcast
6:55 AM 34.7 °F 28.8 °F 28.2 °F 77% 30.05 in 10.0 mi NE 6.9 mph - N/A   Overcast
7:15 AM 34.7 °F 28.8 °F 28.4 °F 78% 30.04 in 10.0 mi NE 6.9 mph - N/A   Overcast
7:35 AM 35.1 °F 28.6 °F 29.1 °F 79% 30.05 in 10.0 mi NE 8.1 mph - N/A Rain Light Rain
7:55 AM 34.3 °F 28.4 °F 30.4 °F 85% 30.05 in 4.0 mi NE 6.9 mph - N/A Rain Rain
8:15 AM 34.3 °F 27.0 °F 32.0 °F 91% 30.04 in 5.0 mi NE 9.2 mph - 0.01 in Rain Light Rain
8:35 AM 34.9 °F 27.7 °F 32.5 °F 91% 30.03 in 7.0 mi NE 9.2 mph - 0.01 in   Light Drizzle
8:55 AM 34.9 °F 26.6 °F 32.7 °F 92% 30.03 in 5.0 mi NE 11.5 mph - 0.02 in Rain Light Rain
9:15 AM 35.6 °F 28.0 °F 33.4 °F 92% 30.02 in 4.0 mi NE 10.4 mph - 0.01 in Rain Light Rain
9:35 AM 36.0 °F 27.1 °F 34.0 °F 93% 29.99 in 5.0 mi NE 13.8 mph 19.6 mph 0.02 in Rain Light Rain
9:55 AM 35.6 °F 28.6 °F 34.0 °F 94% 29.99 in 2.5 mi NE 9.2 mph - 0.05 in Rain Rain
10:15 AM 36.7 °F 29.4 °F 35.2 °F 95% 29.97 in 2.0 mi ENE 10.4 mph - 0.04 in Rain Light Rain
10:35 AM 37.8 °F 30.2 °F 36.5 °F 95% 29.95 in 4.0 mi ENE 11.5 mph - 0.06 in Rain Light Rain
10:55 AM 38.3 °F 31.4 °F 37.0 °F 95% 29.94 in 3.0 mi ENE 10.4 mph - 0.07 in Rain Rain
11:15 AM 40.1 °F 32.0 °F 38.7 °F 95% 29.91 in 4.0 mi ENE 15.0 mph 20.7 mph 0.02 in Rain Light Rain
11:35 AM 40.3 °F 33.4 °F 38.8 °F 95% 29.90 in 4.0 mi ENE 11.5 mph - 0.04 in Rain Light Rain
11:55 AM 41.0 °F 33.5 °F 39.6 °F 95% 29.89 in 3.0 mi ENE 13.8 mph - 0.08 in Rain Heavy Rain
12:15 PM 42.6 °F 36.3 °F 41.0 °F 94% 29.88 in 3.0 mi East 11.5 mph - 0.05 in Rain Rain
12:35 PM 43.7 °F 36.0 °F 42.3 °F 95% 29.85 in 4.0 mi ENE 17.3 mph 25.3 mph 0.11 in Rain Rain
12:55 PM 43.7 °F 36.9 °F 42.1 °F 94% 29.82 in 3.0 mi East 13.8 mph - 0.19 in Rain Rain
1:15 PM 44.2 °F 37.3 °F 42.8 °F 95% 29.78 in 3.0 mi East 15.0 mph 20.7 mph 0.08 in Rain Light Rain
1:35 PM 47.1 °F - 45.9 °F 95% 29.76 in 5.0 mi East 23.0 mph 31.1 mph 0.09 in Rain Light Rain
1:55 PM 48.2 °F - 46.4 °F 93% 29.74 in 7.0 mi East 20.7 mph 29.9 mph 0.09 in Rain Light Rain
2:15 PM 48.4 °F - 46.8 °F 94% 29.73 in 7.0 mi East 19.6 mph 31.1 mph 0.01 in Rain Light Rain
2:35 PM 49.1 °F - 47.3 °F 93% 29.69 in 4.0 mi East 19.6 mph 26.5 mph 0.04 in Rain Rain
3:15 PM 50.0 °F - 48.4 °F 94% 29.66 in 5.0 mi ESE 18.4 mph 31.1 mph 0.01 in Rain Light Rain
3:35 PM 50.5 °F - 49.1 °F 95% 29.64 in 3.0 mi East 18.4 mph 29.9 mph 0.01 in Rain Light Rain
3:55 PM 51.1 °F - 49.5 °F 94% 29.61 in 2.0 mi East 16.1 mph 24.2 mph 0.02 in Rain Light Rain
4:15 PM 52.0 °F - 50.5 °F 95% 29.61 in 7.0 mi ESE 8.1 mph 20.7 mph N/A   Overcast
4:35 PM 52.7 °F - 51.1 °F 94% 29.60 in 7.0 mi SE 6.9 mph 21.9 mph N/A   Overcast
4:55 PM 53.4 °F - 51.8 °F 94% 29.59 in 3.0 mi ESE 12.7 mph - 0.03 in Rain Light Rain
5:15 PM 53.8 °F - 52.2 °F 94% 29.59 in 5.0 mi ESE 11.5 mph 19.6 mph 0.01 in Rain Light Rain
5:35 PM 53.8 °F - 52.2 °F 94% 29.58 in 10.0 mi East 9.2 mph - 0.01 in Rain Light Rain
5:55 PM 54.1 °F - 52.7 °F 95% 29.58 in 10.0 mi ESE 3.5 mph - 0.01 in   Overcast
6:15 PM 54.5 °F - 53.1 °F 95% 29.59 in 10.0 mi Calm Calm - N/A   Light Drizzle
6:35 PM 54.1 °F - 52.9 °F 95% 29.58 in 10.0 mi Calm Calm - N/A   Overcast
6:55 PM 53.8 °F - 52.7 °F 96% 29.59 in 7.0 mi East 3.5 mph - N/A   Overcast
7:15 PM 54.0 °F - 52.7 °F 95% 29.58 in 1.2 mi Calm Calm - N/A   Overcast
7:35 PM 53.8 °F - 52.7 °F 96% 29.59 in 0.8 mi Calm Calm - N/A   Overcast
7:55 PM 54.0 °F - 52.9 °F 96% 29.58 in 0.5 mi Calm Calm - N/A Fog Fog
8:15 PM 53.6 °F - 52.7 °F 97% 29.59 in 0.2 mi Calm Calm - N/A Fog Fog
8:35 PM 53.8 °F - 52.7 °F 96% 29.60 in 0.2 mi Calm Calm - N/A Fog Fog
8:55 PM 53.8 °F - 52.7 °F 96% 29.61 in 0.2 mi SW 3.5 mph - N/A Fog Fog
9:15 PM 54.0 °F - 52.9 °F 96% 29.61 in 0.2 mi WSW 3.5 mph - N/A Fog Fog
9:35 PM 54.3 °F - 53.2 °F 96% 29.62 in 0.2 mi Calm Calm - N/A Fog Fog
9:55 PM 53.8 °F - 52.9 °F 97% 29.62 in 0.5 mi SW 4.6 mph - N/A Fog Fog
10:15 PM 52.2 °F - 51.3 °F 97% 29.62 in 10.0 mi West 5.8 mph - N/A   Mostly Cloudy
10:35 PM 50.5 °F - 49.6 °F 97% 29.62 in 10.0 mi West 3.5 mph - N/A   Clear
10:55 PM 49.3 °F - 48.4 °F 97% 29.62 in 10.0 mi WSW 4.6 mph - N/A   Clear
11:15 PM 48.0 °F - 46.9 °F 96% 29.61 in 10.0 mi South 4.6 mph - N/A   Clear
11:35 PM 46.0 °F 43.1 °F 45.0 °F 96% 29.61 in 10.0 mi WSW 5.8 mph - N/A   Clear
11:55 PM 46.6 °F - 45.7 °F 97% 29.61 in 10.0 mi WSW 4.6 mph - N/A   Clear